Theta_e
326 327 327 327 328 330 332 333 335 337 338 340 341 342 341 339 340 337 336 334 330 327 326 324 323 323 325 323 325 325 327 328 327 328 329 331 331 328 328 328 329 331 331 332 332 332 333 338 338 333 335 333 332 332 332 333 335 336 336 334 333 333 333 332 333 334 330 327 333 331 331 331 331 332 332 332 332 334 336 336 336 336 335 334 336
324 324 325 326 325 329 331 331 333 333 335 338 340 341 341 339 338 337 334 332 329 328 325 324 325 323 322 323 321 321 321 322 323 327 327 329 328 326 326 325 326 329 330 331 332 331 330 331 333 334 337 335 334 332 330 331 332 333 332 331 331 330 329 333 333 333 327 326 325 326 330 333 329 330 331 327 332 332 335 337 337 337 336 338 338
324 324 324 323 325 327 328 330 332 334 335 336 339 340 340 339 336 337 333 330 330 330 325 324 325 327 323 321 320 320 326 328 324 325 327 325 327 326 327 328 328 327 329 328 329 329 330 330 331 332 332 333 333 332 332 333 333 332 330 328 328 329 329 334 334 332 328 329 329 323 321 322 330 330 330 327 331 329 330 331 332 333 333 335 337
324 325 324 323 324 325 326 328 331 332 333 335 337 338 338 335 337 335 333 331 330 329 325 327 328 329 330 327 328 325 322 324 326 327 326 327 325 325 327 328 327 327 327 327 327 327 329 329 330 330 330 332 331 329 329 328 330 330 330 328 328 326 326 328 334 332 333 329 319 321 322 319 315 321 327 328 327 325 328 329 332 331 334 334 336
321 325 326 324 323 323 324 327 330 330 332 333 335 336 336 335 336 335 332 330 329 327 328 329 327 326 327 328 325 324 324 323 323 323 325 323 324 324 325 326 326 326 327 327 325 325 327 329 329 329 328 329 328 327 327 327 328 329 329 330 328 327 324 327 330 333 331 331 329 321 317 315 317 320 324 326 330 328 327 325 330 331 331 333 335
320 322 325 326 325 325 325 326 327 328 330 333 335 335 335 333 335 334 331 330 328 328 329 325 323 321 318 316 315 316 315 318 319 320 321 322 320 324 324 326 326 327 326 326 325 325 327 328 329 327 327 327 327 326 325 325 324 325 329 329 329 331 328 327 326 331 332 333 334 331 323 321 319 322 321 315 327 331 330 329 328 329 333 334 335
319 321 323 325 326 325 325 325 326 326 329 332 334 335 333 333 335 333 330 328 328 328 328 324 323 322 321 318 316 316 316 318 322 323 322 321 323 324 325 328 327 327 327 326 325 324 326 327 328 327 325 326 325 326 324 324 323 323 326 326 327 327 328 325 325 324 329 331 332 330 332 330 330 324 316 320 315 322 327 330 328 329 329 329 330
316 319 321 323 326 325 324 325 326 326 329 331 333 333 332 334 333 332 329 326 328 329 327 325 323 322 322 320 317 317 317 318 321 323 325 322 323 324 324 326 327 327 326 326 326 326 326 325 325 324 321 321 321 321 323 323 324 324 326 327 326 326 325 325 324 325 323 325 330 329 328 327 330 329 326 321 320 316 319 330 330 329 330 329 332
313 314 319 322 323 326 326 326 327 327 328 329 331 331 332 333 331 331 328 327 328 329 326 325 324 323 322 321 317 318 320 321 320 321 321 323 323 322 323 324 325 325 324 325 324 321 319 319 319 318 317 316 314 315 319 320 323 324 324 324 325 325 324 324 322 321 322 322 322 322 324 323 326 327 326 323 320 315 315 320 322 329 328 329 332
312 312 313 317 324 325 328 328 327 327 328 330 330 330 332 331 329 329 327 326 327 329 327 326 325 324 322 320 319 317 319 319 319 320 322 323 322 322 322 322 322 322 323 323 321 319 319 319 318 317 317 315 314 316 316 318 319 321 322 323 324 323 323 323 323 322 322 323 322 321 320 320 320 320 321 319 319 320 314 315 317 318 321 327 328
309 310 311 313 318 325 327 326 327 328 329 328 329 328 330 329 329 327 327 325 327 328 326 326 326 326 323 322 320 319 319 320 318 321 321 321 321 321 321 321 322 320 321 322 321 320 321 319 319 318 318 317 315 315 316 315 317 317 318 320 320 320 320 320 320 321 320 320 320 319 317 317 316 316 316 316 316 314 314 314 315 314 313 315 321
309 309 309 311 314 322 326 326 326 327 328 327 328 327 327 328 328 327 326 325 327 327 327 326 325 326 325 324 321 321 321 320 320 320 320 320 321 319 320 320 321 321 321 320 320 320 321 320 320 319 318 318 316 316 316 315 315 316 316 317 317 318 318 316 317 316 317 316 318 318 317 317 317 316 316 316 315 314 313 312 311 312 313 314 316
309 309 309 310 313 320 324 325 325 326 326 326 327 327 327 327 327 326 325 326 327 326 325 326 326 326 324 324 322 321 322 321 320 320 322 319 320 320 319 318 320 320 320 320 320 321 320 321 320 318 317 318 317 315 316 316 316 316 316 316 317 316 316 316 314 314 314 314 313 315 314 314 315 316 316 315 315 315 314 312 313 314 311 312 313
311 310 310 310 314 319 322 322 323 325 325 325 326 326 326 326 326 326 325 326 326 326 326 325 327 327 326 325 324 320 321 322 321 320 322 320 320 320 319 318 319 320 321 321 320 320 321 322 321 320 318 318 317 317 317 317 317 315 316 316 316 316 316 315 314 314 314 313 313 311 312 312 313 314 314 314 313 312 312 312 311 311 311 309 310
311 312 312 314 316 320 321 322 323 324 325 325 326 326 326 324 325 326 324 327 326 326 326 325 325 327 326 326 325 324 321 319 320 321 323 321 321 322 320 319 319 320 321 323 322 322 322 322 322 321 319 318 317 317 317 317 316 315 315 317 316 316 316 315 314 314 312 312 311 311 310 311 311 311 313 312 312 312 311 311 310 306 307 309 308
310 311 314 316 318 320 322 322 323 324 324 325 325 326 325 322 324 326 324 327 327 326 327 325 325 326 328 328 328 327 322 321 319 320 322 324 324 321 320 320 320 320 322 324 324 323 323 323 322 321 320 319 318 317 317 316 316 315 315 316 315 315 315 315 315 314 313 312 311 311 311 310 310 310 311 311 312 313 312 312 311 310 307 305 308
311 310 310 316 317 319 320 322 323 324 324 325 326 326 324 323 327 326 325 327 327 328 327 326 326 327 329 330 330 330 329 326 321 323 326 327 326 324 321 321 321 321 321 324 324 325 324 324 322 322 321 319 318 317 316 316 316 315 315 315 315 316 315 313 314 314 313 313 313 311 311 310 311 311 310 312 313 313 313 312 312 310 309 307 306
312 311 312 312 315 317 318 320 321 321 322 323 324 326 326 327 327 324 325 325 326 327 328 328 328 327 328 329 329 330 328 330 328 327 329 328 328 327 325 323 322 322 322 323 325 324 324 323 323 322 321 320 318 317 316 316 317 315 315 315 314 315 314 313 313 312 311 311 310 311 310 311 312 312 311 311 312 313 313 313 313 312 312 308 308
310 311 312 312 313 314 315 316 318 321 322 323 322 323 324 326 326 327 326 325 324 326 327 327 325 326 327 329 329 329 329 329 329 330 331 329 328 326 326 325 325 324 322 323 324 323 323 323 323 322 321 320 319 318 317 317 316 315 315 314 315 314 313 312 311 311 310 310 309 309 309 310 310 311 312 312 313 312 313 312 312 312 312 312 310
309 310 311 312 313 313 314 315 316 317 319 321 323 323 323 324 324 325 326 326 325 325 324 324 325 326 327 328 329 326 326 326 329 331 329 329 328 327 326 326 326 324 322 323 322 322 323 323 322 321 321 320 318 318 317 317 316 316 315 313 313 313 312 311 311 310 307 309 308 308 307 308 309 309 311 311 310 311 311 310 311 312 312 312 311
309 309 309 310 312 314 314 316 315 316 317 318 319 319 321 322 322 322 323 323 325 326 325 325 325 325 327 327 328 329 329 328 329 330 330 329 328 327 327 327 326 325 323 322 321 322 321 322 321 321 320 319 318 317 317 316 316 315 314 313 312 311 310 310 310 310 309 308 306 306 306 307 309 309 310 309 309 309 310 310 310 310 310 311 310
309 309 309 310 311 311 312 312 313 314 315 315 316 317 317 319 320 321 320 321 322 322 324 325 326 326 326 325 325 328 328 328 329 329 329 328 328 327 329 327 327 326 324 322 320 322 322 322 321 320 320 318 318 316 316 316 314 314 314 313 313 311 310 309 310 307 309 308 309 306 305 306 307 306 309 307 308 308 307 309 309 309 307 308 311
308 308 308 309 310 310 310 310 311 311 312 313 314 314 315 317 318 319 319 321 322 322 323 323 324 325 326 326 326 325 325 327 327 328 328 327 327 328 328 328 326 326 324 323 321 322 322 321 321 320 319 318 317 316 316 315 315 314 312 313 312 311 310 310 309 307 306 306 307 306 306 306 307 307 308 309 309 309 308 306 308 308 308 309 308
308 308 309 308 308 309 308 308 308 309 310 311 311 312 312 312 312 313 315 317 320 321 323 323 324 324 325 326 326 327 326 326 326 326 327 328 327 327 327 327 326 326 324 324 322 323 322 321 321 320 319 317 316 316 315 315 314 313 312 311 311 311 310 309 308 307 306 306 306 305 306 306 306 306 306 306 307 308 307 307 307 308 309 308 309
308 308 308 309 308 308 307 307 307 307 307 310 309 309 310 310 311 312 312 313 315 320 322 322 323 324 325 325 325 325 325 325 326 326 326 326 327 326 326 324 325 325 325 324 322 324 321 320 321 319 318 317 316 315 315 314 314 314 312 312 311 310 310 309 308 307 307 306 305 305 305 305 305 306 306 306 306 307 305 306 305 305 305 307 309
308 308 308 308 307 307 307 308 307 307 307 308 309 309 309 309 310 311 310 311 311 315 317 322 324 323 322 322 324 324 324 325 325 326 325 324 324 325 325 325 322 322 324 324 324 322 321 320 321 319 318 317 316 315 314 313 313 313 312 312 311 310 309 307 307 306 305 305 305 304 304 305 304 304 305 305 306 307 306 306 305 305 304 306 307
306 307 308 307 307 307 307 308 307 307 308 308 307 307 308 310 310 310 310 310 311 313 313 314 317 321 321 321 322 324 325 326 327 327 327 325 325 325 324 324 324 323 323 323 323 322 322 321 320 319 318 317 315 315 314 314 313 312 311 311 310 309 308 307 305 303 303 304 304 303 304 304 304 304 304 304 306 306 306 306 306 306 306 306 305
306 306 306 305 306 307 307 307 307 306 307 307 307 308 308 309 309 309 310 310 311 312 311 311 312 316 316 318 320 322 323 324 325 325 325 326 326 325 325 324 324 324 323 323 321 321 322 321 320 318 318 316 315 314 314 313 312 312 311 311 309 308 306 305 304 302 303 303 303 303 303 302 303 303 304 304 303 302 303 304 305 305 306 305 304
304 305 305 305 305 306 307 307 307 306 306 307 306 307 309 309 309 309 310 310 311 311 310 309 310 311 312 314 316 318 321 322 323 323 323 324 325 326 325 325 324 324 323 323 322 321 320 319 318 318 317 316 315 314 313 313 312 311 311 309 307 305 304 303 302 302 302 302 301 302 302 302 301 299 298 298 299 299 300 299 301 303 303 304 304
303 303 304 304 304 305 305 307 307 306 305 304 306 306 306 308 308 308 309 309 310 310 309 309 309 310 310 311 314 317 319 320 321 321 322 323 323 324 324 324 324 323 323 323 322 321 318 318 316 316 315 315 314 314 308 303 305 309 308 306 305 304 302 302 301 301 301 301 301 302 302 298 299 299 298 296 294 295 297 299 300 302 302 302 302
302 303 303 303 304 304 305 305 305 306 306 305 306 306 307 307 308 308 307 308 308 308 308 308 308 308 310 310 310 313 316 318 319 320 321 321 321 321 322 322 323 322 323 321 318 317 316 318 315 315 314 314 314 310 295 294 294 297 305 306 304 303 302 301 301 300 300 301 301 301 302 302 300 299 299 294 293 294 294 294 295 296 297 299 299
302 302 302 303 302 303 303 304 304 305 304 305 305 305 305 306 307 307 307 308 309 309 308 308 308 308 308 308 309 310 312 315 318 318 319 321 321 321 320 320 321 321 320 318 318 315 315 314 314 313 314 314 311 296 292 292 293 293 298 303 303 302 301 301 300 300 300 300 300 301 301 302 302 302 301 298 298 294 292 293 292 292 292 292 293
301 301 301 301 301 302 304 304 303 303 303 304 304 304 305 307 307 308 308 308 308 308 308 308 309 308 308 309 308 309 310 312 315 317 318 320 319 319 319 319 318 319 318 317 315 316 316 316 314 311 309 308 301 291 291 291 292 292 293 298 302 302 301 300 300 300 299 299 300 299 300 301 302 301 299 300 301 300 295 293 292 293 292 292 291
301 301 300 302 303 304 304 305 305 306 306 307 307 306 308 309 308 308 308 308 307 308 308 308 309 309 309 309 309 309 309 310 313 316 318 317 317 317 319 319 318 318 317 317 316 315 315 314 311 310 308 306 300 292 291 291 291 290 290 294 303 302 301 300 300 299 300 300 300 300 299 300 301 301 301 300 301 300 299 299 300 300 301 299 293
301 301 302 303 303 303 304 304 305 305 306 306 306 307 307 307 307 307 307 307 308 307 308 308 309 309 310 309 309 309 309 310 312 314 316 316 316 316 317 317 317 317 316 315 314 314 313 311 310 309 308 306 300 291 290 290 290 290 289 292 302 301 300 300 300 300 300 300 300 301 301 300 300 301 300 299 299 298 298 298 298 298 299 300 301
302 302 303 303 303 303 303 304 306 305 305 305 305 306 306 306 307 307 307 307 307 307 307 308 308 309 309 310 310 309 310 310 311 313 314 315 316 316 315 316 317 317 317 316 313 312 311 310 310 309 307 304 299 289 290 290 290 290 288 297 301 301 301 300 300 300 300 300 300 301 300 300 300 300 297 292 293 297 296 296 296 297 298 299 300
303 303 303 304 304 304 304 305 306 305 305 305 306 306 306 306 306 306 306 306 306 306 305 306 307 308 309 310 310 310 310 310 311 312 313 315 315 315 315 316 315 316 315 314 312 311 310 310 308 307 305 303 298 291 290 290 290 289 292 299 301 300 300 301 301 301 301 301 301 301 301 300 300 299 295 291 290 292 296 295 296 296 297 298 298
301 302 302 303 304 304 304 304 304 305 306 306 306 306 306 306 306 305 305 305 304 304 305 305 307 308 309 309 309 309 309 310 311 312 313 314 315 315 314 314 314 315 315 313 311 310 311 308 306 304 303 304 300 293 289 290 290 289 293 300 301 300 300 300 300 301 301 301 301 300 299 299 299 299 293 290 290 293 295 295 295 295 295 295 296
300 300 301 302 303 303 303 303 303 303 305 306 306 306 304 304 305 304 304 304 304 304 305 305 307 308 309 310 310 310 310 310 311 312 313 314 314 313 314 314 314 315 315 315 310 309 308 307 307 306 302 303 302 297 289 290 290 290 294 299 299 299 299 300 300 300 301 301 301 300 297 297 298 296 291 290 289 292 295 295 295 294 293 293 295
300 301 302 301 302 301 302 303 303 303 305 305 304 304 303 303 304 304 304 304 304 305 305 306 307 308 309 309 310 310 310 311 311 312 313 313 314 314 314 314 314 314 314 314 310 307 305 306 305 304 303 302 300 299 294 289 290 289 290 298 300 299 298 299 299 298 299 300 300 300 298 292 291 291 290 289 289 289 293 295 294 293 292 292 295
300 301 300 301 301 301 300 302 302 303 304 304 304 303 303 302 303 303 303 304 305 304 305 306 307 307 308 309 309 310 310 311 313 313 313 313 313 313 314 314 314 314 312 310 307 305 305 305 304 303 302 302 302 302 296 289 290 290 288 291 299 299 299 298 298 297 298 298 297 298 299 294 289 289 289 288 288 288 289 293 293 292 293 293 292
301 301 301 301 301 302 303 302 303 303 303 303 303 302 302 302 303 302 304 305 305 304 305 306 306 306 307 308 309 310 311 312 313 312 312 312 313 313 313 312 310 309 307 304 302 302 301 302 302 301 301 300 298 298 302 291 290 290 289 289 297 299 298 298 296 296 296 296 297 298 298 293 287 289 288 288 288 288 288 291 292 289 288 288 290
299 300 300 300 300 301 301 301 302 303 304 303 303 302 302 302 302 303 305 305 305 305 305 306 306 306 307 308 309 310 310 312 313 312 311 311 311 311 310 308 307 305 303 301 301 301 300 299 300 299 300 300 301 298 293 296 290 290 289 290 289 293 290 295 296 295 296 296 298 298 297 291 288 288 288 288 288 288 288 291 288 288 288 287 288
299 299 299 298 298 299 301 302 302 303 303 304 303 302 301 301 302 304 305 305 305 305 305 305 305 307 307 307 308 309 310 312 312 311 311 310 311 308 304 303 302 300 299 298 300 299 298 297 297 299 299 299 299 299 293 291 293 288 289 288 288 287 288 295 296 296 296 297 297 298 295 288 288 288 288 288 288 288 290 288 288 287 287 288 290
297 297 298 299 298 299 300 301 302 303 303 303 304 303 302 301 303 305 304 304 305 305 304 305 306 306 306 307 308 309 310 310 310 310 308 305 302 301 300 300 300 299 299 298 298 297 297 297 297 296 297 298 299 299 300 294 289 290 288 288 287 287 287 287 293 296 296 296 292 289 288 289 288 288 288 288 288 288 288 287 287 287 288 291 290
298 298 299 299 300 300 300 300 301 303 303 304 303 303 301 302 304 304 304 305 305 304 304 304 305 305 305 305 306 307 308 308 308 307 304 302 301 300 299 300 299 298 298 299 298 298 296 294 297 298 296 296 297 298 298 300 295 294 292 287 288 288 289 289 290 293 290 289 288 288 287 287 288 289 291 292 291 292 289 288 288 288 291 291 291
297 298 299 300 300 299 300 300 300 302 302 302 302 302 302 302 301 303 303 303 302 302 302 303 303 304 305 305 305 305 306 306 303 302 302 301 301 300 300 299 299 298 298 297 297 294 294 294 295 296 296 296 296 297 298 298 299 299 299 297 296 296 291 290 294 295 292 293 292 291 291 289 289 288 288 288 288 289 290 291 292 292 292 292 291
299 300 300 300 299 299 299 298 299 300 300 301 301 301 301 302 302 303 303 302 302 301 302 302 303 303 303 305 305 296 298 301 300 301 300 300 299 299 300 299 298 298 296 295 295 295 294 295 295 296 296 296 296 297 297 296 298 297 297 297 297 296 296 296 295 295 293 292 292 290 290 293 292 291 291 292 292 291 291 290 291 291 291 291 291
298 299 299 299 299 298 298 298 298 300 300 300 301 301 302 302 302 302 303 302 301 301 301 302 302 303 304 303 305 301 300 299 299 299 300 300 299 298 299 300 299 298 296 295 296 299 298 298 298 298 296 295 295 296 295 289 290 288 290 293 294 294 294 294 291 287 289 291 292 292 291 290 290 288 288 290 290 290 289 290 291 291 291 291 291
300 300 300 300 298 298 299 298 298 300 299 299 300 301 301 302 302 302 302 301 301 301 302 302 302 302 303 304 304 301 300 299 299 299 296 294 288 290 298 301 299 291 291 292 293 298 298 299 297 297 297 296 296 295 287 287 288 288 287 286 287 287 287 288 288 286 288 290 290 289 289 289 289 288 287 287 288 289 289 288 289 288 289 290 290
299 299 298 298 298 298 298 297 298 299 299 299 299 300 300 301 301 301 301 301 301 301 301 301 301 301 301 303 302 300 301 299 298 298 296 294 295 292 287 287 289 290 289 289 288 288 288 290 296 295 291 286 287 286 287 288 287 287 287 287 287 287 287 287 287 288 289 289 289 288 288 288 288 288 287 287 288 288 288 288 288 289 289 288 288
Wind_Speed
9 9 10 11 12 9 8 7 7 7 8 9 9 9 9 9 8 9 7 7 6 6 4 4 4 3 3 2 3 3 2 3 2 2 2 4 5 5 4 4 3 3 3 2 1 0 0 2 4 6 5 3 3 3 4 5 5 3 3 3 6 7 6 5 4 3 2 2 3 5 5 5 4 2 7 8 5 5 5 6 6 7 8 8 7
9 9 10 11 11 11 8 7 8 9 9 10 10 10 10 10 9 8 7 7 6 5 4 3 3 3 4 4 2 3 4 3 4 3 3 4 5 4 4 3 3 2 2 2 2 2 0 2 2 5 4 4 4 5 3 3 4 5 4 4 5 7 5 4 4 5 3 2 1 2 4 3 5 4 4 8 4 4 5 5 6 7 8 7 8
10 9 10 10 12 12 10 8 8 9 10 10 10 11 10 10 9 8 8 8 7 6 5 5 3 2 1 4 2 4 4 4 4 4 3 5 4 4 4 4 3 4 3 3 2 2 3 2 2 2 3 4 5 5 4 4 5 5 5 5 4 6 5 3 5 4 3 3 2 1 2 3 1 1 4 5 4 6 7 8 7 8 10 7 7
12 11 11 11 12 12 11 10 9 9 9 10 11 11 9 9 9 9 9 8 7 7 5 5 5 5 4 4 4 3 5 5 4 4 4 3 5 5 5 4 5 4 4 3 2 3 3 3 3 3 4 4 4 3 3 2 1 1 3 3 4 4 5 3 4 5 3 3 2 2 1 2 1 1 1 1 3 7 7 9 5 5 5 7 6
11 11 11 12 13 14 15 13 11 11 11 12 12 11 8 11 10 11 9 8 7 7 7 6 7 6 5 6 6 5 4 4 4 4 3 4 4 5 5 4 5 4 5 5 5 4 3 3 4 4 4 3 3 4 3 2 2 1 1 2 3 2 3 1 1 3 4 5 2 2 2 2 1 2 1 1 1 2 2 9 7 5 6 4 5
10 12 14 14 14 14 14 14 14 13 12 12 12 12 11 11 10 10 9 8 8 8 7 7 7 7 7 7 7 6 5 4 4 4 4 3 5 4 5 5 5 4 5 6 5 5 5 4 4 4 4 4 4 4 4 4 2 2 3 2 2 2 1 2 2 1 3 4 5 4 1 1 1 1 1 1 1 2 2 3 6 12 4 4 3
10 10 11 13 13 14 14 15 15 14 13 12 12 11 12 11 11 11 9 8 8 8 9 7 8 7 8 7 6 6 5 4 4 4 4 4 4 5 5 5 6 6 5 6 6 6 6 5 5 5 5 4 4 4 5 4 4 5 4 3 4 4 3 1 2 1 2 2 4 5 3 1 2 3 3 0 2 2 3 3 3 6 6 6 6
8 9 11 12 13 14 16 16 15 14 13 13 11 11 13 12 12 12 10 9 9 8 9 8 8 8 8 7 6 6 4 7 6 5 5 4 5 4 4 5 5 5 5 5 6 6 6 6 6 5 5 5 5 5 5 4 4 5 5 5 4 3 4 3 3 3 1 1 1 1 2 2 3 2 2 3 2 2 3 2 2 4 6 7 5
9 9 10 12 13 14 14 14 15 14 14 14 13 12 12 11 12 12 11 11 10 11 10 10 8 8 8 7 7 5 5 5 6 5 5 5 5 4 4 5 5 5 6 6 7 7 7 7 6 6 5 5 5 6 5 6 6 5 5 5 6 5 4 3 2 3 3 3 1 1 1 3 1 3 3 1 1 1 2 2 2 2 4 5 4
8 11 12 11 11 13 13 12 13 13 13 13 12 12 12 11 12 13 13 11 11 12 11 11 10 8 8 8 9 7 5 5 4 6 5 5 6 5 5 4 5 5 5 6 7 7 7 7 7 7 7 6 6 7 6 6 6 6 6 5 5 6 5 5 5 4 4 4 4 3 4 4 2 3 2 3 1 2 4 4 3 4 4 3 3
7 8 10 11 10 10 11 13 14 13 12 14 13 13 12 11 12 13 13 11 12 13 13 12 11 9 8 9 10 9 8 6 5 6 5 6 6 5 5 4 4 5 5 5 6 6 7 7 7 7 6 6 6 6 5 5 5 5 5 6 6 6 5 5 5 5 3 4 4 4 3 4 3 3 3 2 3 3 4 5 5 6 6 6 5
7 7 8 10 12 11 11 13 14 14 13 13 12 13 12 12 12 14 14 13 12 12 13 12 11 10 9 9 10 9 9 7 7 7 7 7 6 6 5 5 5 5 5 5 5 6 6 6 6 6 6 6 5 5 5 5 5 5 4 4 5 5 5 4 5 5 4 3 3 3 3 3 3 3 3 2 2 2 3 5 6 6 7 7 6
6 6 5 6 10 12 12 12 12 13 13 14 14 13 13 13 14 15 15 15 13 13 13 13 12 11 10 10 10 9 9 8 7 6 6 6 6 6 5 5 5 5 5 5 6 6 5 5 5 5 6 5 5 5 5 5 5 5 5 5 5 5 5 5 5 5 5 4 3 3 3 2 3 3 3 3 2 2 4 5 4 5 7 7 8
7 6 5 4 7 9 11 11 12 12 14 14 14 13 12 12 14 15 16 15 13 13 14 13 13 12 11 10 9 9 9 8 7 6 6 6 5 6 6 5 5 5 6 6 6 6 4 5 5 6 6 6 6 5 5 4 4 4 5 5 5 5 5 5 5 5 4 4 3 3 3 3 3 2 3 2 2 3 4 4 5 5 6 8 8
8 7 6 2 4 7 8 9 9 9 11 13 12 13 12 13 14 15 14 15 15 14 12 13 12 12 11 10 9 8 9 8 8 6 6 6 5 6 5 5 4 5 5 6 7 6 6 5 6 6 6 6 6 5 5 4 4 4 5 4 4 4 4 4 4 4 4 4 3 3 2 2 3 3 3 3 3 3 4 4 5 7 6 5 6
8 8 7 5 3 3 5 6 6 7 10 10 12 11 12 14 13 13 14 13 13 13 12 13 12 10 10 10 10 8 8 8 8 7 6 6 6 7 7 6 5 4 5 6 7 7 7 7 7 6 6 6 5 5 4 4 4 3 4 3 4 3 3 3 3 3 3 3 2 3 2 2 3 3 4 3 4 4 4 4 4 5 6 7 5
9 8 8 7 6 6 5 4 4 5 6 8 9 9 13 13 10 12 12 11 12 12 11 12 11 10 8 9 8 8 8 9 8 9 8 7 7 7 7 8 7 6 6 7 8 8 8 8 7 7 7 6 6 5 5 5 4 3 4 4 3 3 3 3 3 2 2 1 2 2 3 2 1 2 3 4 4 4 4 4 4 5 5 7 7
10 9 8 7 8 9 7 5 3 4 5 6 7 6 9 8 7 9 9 9 9 9 10 10 11 10 11 11 11 10 10 10 9 9 9 8 7 7 7 8 8 7 8 7 8 9 8 8 8 8 7 7 6 6 5 5 5 4 4 4 3 3 3 3 2 2 2 2 2 2 2 2 2 3 2 3 4 4 4 4 4 5 5 6 6
10 10 9 9 9 9 8 6 6 4 2 3 6 7 8 8 7 5 6 7 5 5 6 7 9 8 8 9 11 11 10 9 9 8 8 9 9 8 8 8 9 9 9 9 9 10 9 9 8 8 8 7 7 6 6 5 4 5 5 5 4 3 3 3 2 2 1 1 1 1 2 1 2 2 3 2 3 3 4 4 4 5 5 6 7
9 10 10 10 10 9 8 8 6 5 5 4 3 1 5 7 8 7 5 4 5 5 5 6 7 7 8 9 10 11 10 10 8 8 8 9 10 10 9 9 9 9 10 11 10 11 11 10 9 9 9 8 8 6 5 5 4 4 4 4 4 4 4 4 3 2 1 0 1 1 1 2 2 3 3 2 3 3 3 5 4 5 5 5 6
9 9 9 10 10 9 8 7 7 8 6 4 4 2 2 1 1 2 3 5 5 6 7 6 6 8 8 9 9 8 10 9 10 9 9 9 9 9 9 9 9 9 10 11 11 12 12 11 11 10 10 9 9 8 6 5 4 5 4 4 5 5 5 4 3 4 3 2 0 1 1 1 1 4 3 3 3 3 4 4 4 4 5 5 6
8 8 9 9 10 11 10 9 8 8 7 7 7 4 3 3 2 2 3 4 5 6 6 7 7 7 10 10 11 10 9 9 10 10 10 9 9 9 9 9 10 10 11 12 13 11 11 12 12 12 11 10 10 9 8 6 6 6 6 4 4 5 4 4 3 2 3 2 2 1 1 0 2 3 3 6 3 4 5 5 4 3 5 5 5
7 7 8 8 9 9 10 11 11 10 8 7 7 6 6 4 3 3 4 5 5 6 6 6 6 8 10 9 10 11 11 11 11 10 11 11 9 9 9 10 10 10 11 12 12 13 13 13 12 12 12 11 10 9 8 8 7 8 7 6 5 5 4 4 4 2 1 1 1 1 1 0 1 3 3 4 4 5 5 6 5 5 6 6 6
7 7 7 7 7 8 8 9 9 9 8 8 8 9 8 7 6 5 6 5 4 4 5 6 6 7 7 7 7 8 9 10 11 11 11 10 9 9 9 10 10 9 11 11 13 14 14 13 13 12 12 12 11 10 9 9 9 8 8 8 7 6 5 4 3 3 2 2 1 2 1 2 2 3 3 4 4 3 5 6 6 6 6 7 7
7 7 7 8 8 8 8 8 8 7 7 7 8 8 7 6 6 7 7 7 7 5 2 2 2 5 6 5 6 6 8 10 11 9 9 8 8 8 8 9 9 10 11 12 12 14 14 15 13 14 13 13 12 12 11 10 9 8 8 8 7 6 6 5 4 3 3 3 2 2 2 2 2 3 3 4 3 5 6 6 7 6 7 7 6
6 7 7 7 7 7 8 7 7 7 6 7 6 6 6 6 6 5 6 6 6 6 6 5 3 3 4 3 5 6 8 10 10 9 11 12 11 12 11 10 11 12 13 13 14 13 14 15 15 15 14 13 13 12 12 11 10 9 8 7 7 6 6 5 4 3 3 3 3 3 2 3 3 3 4 4 5 6 6 6 7 7 8 8 8
6 5 6 6 7 8 7 7 6 6 6 5 5 5 5 4 4 4 4 4 4 5 7 8 6 3 4 5 6 7 8 9 10 10 10 10 10 11 12 12 11 12 13 13 13 14 14 15 15 14 14 14 13 13 12 11 10 10 9 9 8 7 6 5 4 4 4 3 3 3 3 3 4 4 4 5 5 6 6 7 7 7 8 8 8
4 4 5 5 6 6 6 5 5 4 4 4 4 4 4 4 4 5 4 5 5 7 7 6 6 6 6 7 5 5 7 8 9 9 10 11 12 12 13 12 11 12 13 13 14 13 12 14 15 15 14 13 13 13 12 12 11 10 9 9 8 6 6 5 5 4 4 4 4 3 4 3 3 4 3 4 5 6 6 7 7 7 8 8 9
5 4 4 4 4 5 4 4 4 3 4 3 3 3 3 3 3 4 4 5 4 4 3 4 4 5 6 4 4 4 5 6 7 8 9 11 12 12 12 12 11 11 11 12 13 14 14 15 15 15 15 13 12 12 11 11 10 10 8 8 7 6 5 5 5 4 4 4 4 3 4 3 1 5 5 6 7 7 7 7 8 8 9 9 9
6 5 4 3 4 3 4 3 3 4 5 5 4 4 3 2 2 3 3 4 3 3 3 4 3 3 3 4 4 4 5 6 7 7 8 9 10 11 11 12 13 12 11 12 12 12 12 10 12 13 13 12 11 9 8 12 9 8 8 6 6 5 5 5 4 4 4 3 3 3 4 4 3 7 9 10 10 10 10 9 9 8 9 9 10
5 5 4 3 2 3 2 2 3 4 5 5 4 4 4 4 4 5 6 5 6 5 3 3 3 3 3 4 5 5 5 6 6 7 7 8 9 9 10 11 11 12 11 8 12 11 9 8 11 13 14 12 10 7 13 11 9 6 6 6 6 5 5 4 4 4 3 3 4 4 4 7 10 12 12 15 13 12 12 13 13 13 12 11 11
6 4 4 3 2 3 2 3 4 4 4 4 5 6 5 5 6 7 6 6 6 6 6 6 6 6 6 6 5 6 6 6 6 7 7 7 7 8 9 8 8 9 9 10 11 14 15 14 12 11 9 7 6 12 13 12 10 7 4 5 5 5 5 5 4 4 3 3 4 4 5 5 6 6 6 7 10 15 15 14 13 13 13 15 15
4 4 3 2 2 2 2 3 3 3 4 5 5 5 5 5 5 5 5 5 5 6 6 5 6 7 7 7 7 7 7 7 7 7 6 6 6 7 8 8 8 9 12 12 12 13 13 13 11 10 9 9 9 11 11 12 10 8 4 3 5 5 5 5 4 4 4 4 5 5 5 5 5 6 7 8 8 7 8 14 14 14 16 16 16
3 2 1 2 2 3 3 3 4 3 4 5 5 5 4 4 4 5 5 6 7 6 6 6 7 7 7 7 7 7 7 7 8 7 6 6 6 7 7 7 7 9 11 11 12 13 12 11 10 10 9 9 9 12 14 12 11 9 8 7 3 5 4 3 4 4 4 5 6 6 6 6 7 7 7 8 8 8 10 10 9 9 10 12 18
2 1 2 3 3 3 4 4 4 4 5 4 4 4 5 5 5 6 6 6 6 7 7 7 7 7 7 7 7 7 7 8 8 8 7 6 6 6 7 7 7 9 10 10 10 11 10 10 11 10 9 9 8 13 12 12 11 10 10 7 4 4 4 4 5 5 6 6 7 7 7 8 8 8 7 7 9 10 11 10 11 11 12 12 12
1 3 4 4 4 5 5 5 4 5 5 5 5 5 5 6 6 6 7 8 8 8 9 8 8 7 7 7 7 8 8 8 8 8 7 7 6 6 7 7 7 8 9 9 8 8 9 10 9 9 9 9 9 14 12 12 12 10 10 6 4 4 4 5 5 6 6 7 7 7 8 8 8 8 9 4 6 8 11 12 12 12 12 12 12
3 4 4 4 5 5 5 5 6 6 6 6 6 6 7 7 8 8 8 9 9 9 10 10 9 9 8 8 8 8 8 8 8 8 8 7 7 7 7 7 8 9 9 9 9 8 9 9 9 8 9 8 9 12 12 12 11 11 9 5 3 4 5 5 6 6 7 7 8 8 8 8 9 10 8 2 3 5 11 13 13 13 12 12 12
4 5 5 5 6 6 6 6 7 7 7 7 7 7 7 8 8 8 9 9 9 10 10 10 9 9 9 9 9 9 9 8 8 8 8 7 7 7 8 8 10 10 10 9 9 9 9 9 11 10 7 7 9 11 11 10 10 11 8 4 4 5 5 5 6 7 7 7 8 4 6 11 12 11 8 2 1 5 12 12 13 14 15 15 14
6 6 7 7 7 7 8 9 8 9 8 7 8 9 9 9 8 8 9 9 9 10 11 10 9 9 9 8 9 9 9 9 9 9 8 8 8 9 8 9 10 10 10 10 9 10 9 9 9 10 8 8 7 10 11 10 9 10 7 5 5 5 6 6 6 7 7 8 8 7 11 12 12 11 9 8 6 7 11 11 15 16 17 17 15
8 7 7 8 9 10 9 9 9 9 9 9 9 10 10 10 10 9 9 9 10 11 11 10 9 9 8 8 8 9 9 9 9 9 9 8 7 8 10 10 10 10 9 10 9 10 11 9 8 7 5 6 8 6 9 8 7 6 6 6 5 6 6 7 7 8 8 8 9 9 9 12 15 13 10 8 7 7 10 12 15 15 16 17 15
10 9 9 10 10 10 10 11 11 11 10 10 10 11 11 11 11 10 11 10 11 11 11 10 9 9 9 9 8 9 9 9 9 9 9 9 8 9 9 10 9 8 8 9 9 10 9 9 9 8 6 3 4 6 8 10 9 8 7 5 4 5 7 7 8 8 8 9 9 9 10 6 7 3 3 4 6 8 9 11 15 16 17 16 15
11 12 11 11 10 11 12 12 12 12 12 11 11 12 12 11 11 12 12 11 12 12 11 11 11 11 10 9 9 9 9 8 9 10 10 10 9 9 9 8 7 9 9 9 9 7 8 8 6 5 5 5 5 5 6 9 9 8 7 4 4 3 5 6 8 9 9 10 10 9 11 6 8 8 7 8 10 11 12 13 17 19 19 17 17
14 14 13 12 13 13 13 14 12 12 11 11 12 14 13 12 13 14 12 12 13 12 12 12 11 11 10 10 10 10 9 7 8 10 11 11 8 7 6 6 7 7 9 10 10 9 8 7 6 5 4 4 6 7 4 6 9 6 7 6 3 4 3 5 7 9 9 10 10 11 12 10 16 15 16 16 17 18 16 15 16 16 17 17 16
15 15 16 16 17 15 15 14 14 13 13 12 13 14 13 14 15 12 13 13 13 13 13 12 11 10 11 11 10 10 10 9 10 11 10 9 6 6 6 7 9 11 10 8 7 8 8 8 7 6 6 6 6 5 7 6 5 4 2 2 4 4 4 5 6 8 9 10 11 12 11 18 19 18 18 18 17 18 15 18 19 20 20 18 14
15 15 14 15 16 17 16 16 14 15 14 14 13 15 16 17 15 13 14 14 14 14 13 12 12 11 11 11 11 10 11 9 10 9 7 5 9 8 8 9 9 9 8 8 7 7 7 6 5 5 5 5 5 3 4 7 5 6 7 6 6 5 6 6 6 7 8 9 10 12 14 16 15 17 19 20 18 19 21 21 21 20 18 12 14
17 17 16 17 17 18 19 18 17 15 14 13 14 15 18 17 15 14 14 14 14 14 13 13 12 11 11 11 12 12 10 10 7 6 7 8 10 10 11 10 8 8 9 9 8 5 6 7 6 5 4 4 3 3 2 4 6 7 6 9 7 8 8 8 10 10 13 16 16 15 15 16 16 15 12 11 12 13 14 16 17 17 12 12 12
18 18 16 16 16 16 17 18 18 16 16 16 18 18 18 18 18 17 16 16 16 16 16 15 14 12 11 11 13 10 8 3 6 6 7 8 10 10 11 10 9 9 9 8 7 8 8 7 6 6 5 4 4 3 3 2 3 3 4 1 4 5 10 12 9 7 8 8 8 10 13 15 16 18 18 17 17 16 13 12 10 10 11 12 11
17 17 17 17 18 19 19 20 19 18 18 18 19 19 18 18 18 18 17 17 16 16 16 16 15 13 11 11 11 5 8 8 8 9 10 10 8 9 8 7 8 8 7 7 7 7 6 5 5 5 5 4 4 3 3 4 4 4 5 5 4 5 6 7 7 7 8 10 11 12 11 9 9 10 10 10 10 10 11 10 11 11 11 11 13
18 18 17 18 18 18 20 21 21 19 19 18 19 18 18 19 18 17 16 16 16 15 15 16 14 12 13 11 6 8 8 9 10 9 10 9 7 9 11 10 9 8 8 8 6 6 6 6 5 5 4 4 2 4 6 6 5 6 4 5 5 5 6 7 7 9 10 9 10 10 9 9 9 10 10 11 11 11 11 11 13 12 12 12 12
18 16 18 19 19 20 21 21 21 19 19 19 19 19 18 18 17 16 16 16 15 15 16 16 13 12 11 9 7 9 9 10 11 12 9 8 13 13 5 8 6 7 11 8 5 5 6 6 6 6 6 5 5 6 7 5 3 2 2 3 4 6 7 7 10 13 11 9 9 9 9 9 10 10 11 11 11 12 12 12 12 12 11 12 12
18 19 20 20 21 21 22 22 21 20 20 20 19 20 18 18 17 16 14 14 15 14 13 14 12 12 10 7 9 10 8 10 11 11 10 10 9 9 16 15 10 8 14 15 14 15 15 14 7 7 10 14 12 9 7 5 3 2 1 3 5 6 7 8 10 8 7 8 9 9 9 10 10 10 11 12 12 12 12 12 12 12 12 12 11
Wind_Direction
162 163 168 172 175 172 173 171 168 164 165 169 176 178 180 175 168 161 155 157 167 171 180 191 179 162 160 173 144 141 126 117 113 52 37 61 36 53 45 43 33 32 11 24 55 148 152 128 148 144 158 154 173 153 193 216 228 230 236 224 236 227 221 211 195 183 158 251 246 263 271 287 267 230 311 280 248 242 257 267 253 257 259 254 244
165 165 172 173 177 174 171 175 173 173 174 176 182 179 179 176 170 159 158 162 174 179 165 186 184 175 169 158 152 142 147 162 129 118 90 80 77 67 50 40 55 50 45 50 29 28 69 157 146 147 168 163 162 164 165 216 207 209 221 237 226 230 228 194 188 162 174 197 338 314 283 247 261 264 219 275 289 275 289 285 275 269 256 242 251
189 181 178 178 181 180 179 183 184 186 175 179 180 176 175 174 172 162 166 164 177 183 177 169 166 94 147 114 148 110 66 44 64 82 98 102 82 78 71 64 72 83 67 45 40 39 32 30 79 80 134 154 157 156 170 201 214 208 198 222 202 217 218 184 175 196 175 156 117 350 292 274 267 247 254 273 331 337 321 294 284 276 266 255 243
212 198 185 181 181 181 186 185 184 182 176 175 177 177 174 178 171 168 165 168 179 181 184 148 131 126 102 116 88 76 107 109 105 112 103 97 90 68 75 68 58 48 50 85 69 68 52 65 64 64 86 93 123 125 114 94 278 189 175 213 232 209 201 205 179 192 222 163 191 208 252 307 264 244 233 66 333 315 326 305 306 300 287 271 257
226 212 192 187 185 187 188 188 178 181 180 177 176 177 172 177 173 170 165 167 182 178 179 148 142 143 135 128 125 120 131 140 146 130 121 104 93 87 85 71 65 68 73 55 75 79 80 67 67 75 65 59 79 100 96 100 117 106 281 219 201 227 200 204 193 194 200 230 215 170 213 220 263 32 358 297 51 3 314 291 305 281 294 300 252
237 224 209 196 193 189 189 185 184 184 184 179 177 176 172 175 170 167 164 167 180 182 183 172 165 159 157 159 155 154 151 159 154 134 139 111 83 99 92 80 79 73 69 72 73 87 92 85 79 84 76 68 59 68 93 99 83 76 35 35 91 79 357 205 199 131 265 206 232 258 239 268 120 110 88 263 61 244 290 287 335 311 294 295 287
237 240 230 210 200 194 190 188 187 187 185 173 174 174 172 169 165 166 165 166 179 183 189 185 174 171 172 168 163 164 151 132 102 112 112 105 99 90 94 89 94 90 80 84 86 86 84 85 82 75 83 81 75 75 74 65 57 45 53 41 45 43 37 317 150 42 313 184 229 229 207 197 209 197 236 227 256 294 269 268 224 262 309 300 299
255 246 235 227 212 201 195 189 186 189 178 170 169 168 171 165 163 166 168 169 178 184 193 195 184 180 179 176 165 170 159 127 135 123 114 114 109 108 107 106 94 93 94 89 91 85 82 83 79 76 77 79 87 83 78 73 78 80 68 65 56 58 62 69 74 102 285 150 221 222 162 335 177 233 283 258 259 249 226 229 271 296 310 297 273
272 261 246 231 221 209 201 192 192 181 176 173 169 166 167 163 165 169 172 174 175 184 194 198 195 185 183 176 167 164 153 137 145 139 133 125 121 114 102 97 89 76 85 97 95 95 93 85 80 76 69 76 86 89 83 80 75 74 74 66 67 64 53 42 43 46 48 42 311 304 237 183 186 92 101 204 270 270 261 225 225 251 281 285 273
268 267 264 251 231 219 210 201 186 181 179 171 162 160 165 161 170 171 176 179 177 184 194 200 200 191 190 180 171 165 163 151 157 141 145 151 137 134 133 129 115 109 99 99 102 97 92 92 89 84 81 71 69 77 86 85 83 82 71 71 73 82 73 63 51 44 37 36 11 3 343 343 289 187 114 21 315 284 283 286 283 282 253 208 255
294 279 266 251 233 223 204 198 186 173 172 168 161 165 165 167 173 176 180 181 179 186 193 201 201 198 196 186 178 171 169 168 170 159 158 166 154 151 151 136 135 122 120 115 109 106 97 90 90 90 86 80 80 82 75 85 92 89 86 80 73 71 71 72 66 51 45 43 16 23 10 15 12 351 2 352 347 315 306 299 305 295 290 288 246
307 290 274 251 220 203 196 190 178 168 167 167 162 166 166 172 169 175 181 187 183 186 192 201 202 201 203 194 185 180 176 182 186 176 175 174 168 161 154 150 149 142 144 134 132 123 116 106 103 100 93 91 86 81 87 90 88 87 84 86 85 79 80 75 66 57 43 50 38 19 19 1 15 1 20 349 327 327 311 301 294 300 294 288 298
336 317 288 250 210 187 181 184 177 170 170 169 168 169 171 171 172 178 184 189 187 188 192 197 203 204 204 201 194 186 185 191 192 193 184 184 178 172 164 169 162 165 162 154 144 145 132 127 118 107 105 99 94 93 85 75 77 82 84 86 76 74 69 66 70 59 43 22 29 19 3 10 5 15 342 344 318 301 286 282 288 307 301 297 287
358 344 336 242 205 186 181 186 186 180 179 177 173 172 172 171 175 186 188 188 187 191 191 195 203 207 206 206 201 192 189 191 197 199 190 195 182 176 180 182 174 179 168 168 154 160 145 126 115 106 105 109 106 99 93 87 84 93 93 84 86 80 78 81 81 75 66 52 15 2 1 354 350 342 331 299 313 296 300 303 307 294 290 292 298
17 13 12 7 200 180 173 178 184 188 187 183 178 179 177 175 184 191 189 186 190 190 190 197 203 208 210 211 208 203 193 191 198 200 194 197 192 178 186 186 186 184 174 168 158 164 145 136 127 123 118 113 112 107 102 96 83 78 83 75 74 75 80 70 67 58 58 50 35 1 347 346 334 330 321 310 309 306 301 308 306 305 297 285 294
29 27 27 52 71 111 140 159 166 172 180 180 180 179 180 186 192 193 192 186 188 187 189 194 201 205 209 213 214 212 206 197 198 198 197 196 196 194 186 187 189 181 172 163 165 165 156 147 144 136 132 127 123 122 118 104 102 97 91 91 87 86 90 84 98 96 66 48 28 357 307 352 332 336 310 333 315 324 295 284 280 282 293 298 298
34 35 30 20 82 99 95 115 145 150 161 171 176 182 185 189 188 190 189 187 185 186 190 188 196 197 203 211 212 211 214 211 203 192 190 188 193 196 197 190 183 182 171 167 171 167 165 160 152 147 144 139 135 131 125 123 126 111 100 100 94 88 79 70 46 47 73 34 48 350 322 313 345 329 307 318 317 299 294 290 284 281 288 287 292
46 54 51 39 40 60 75 94 127 170 176 174 184 182 195 199 200 194 193 192 176 173 177 179 173 189 205 206 208 211 213 212 211 198 188 186 188 193 194 186 184 180 171 169 173 170 168 165 159 156 152 150 148 145 144 139 142 125 125 119 104 111 116 99 83 69 44 36 20 345 329 312 18 300 337 304 296 301 285 286 278 274 264 273 283
38 42 47 46 51 55 57 70 82 75 101 175 193 196 205 218 221 217 212 210 192 156 164 172 185 197 209 210 208 212 216 218 215 209 196 191 187 193 194 195 185 176 174 169 174 174 173 172 169 163 160 158 158 152 155 155 148 134 141 127 134 141 119 113 94 74 58 24 29 326 322 303 311 284 279 252 255 264 282 275 271 272 273 273 280
37 43 45 48 51 58 56 50 64 97 111 82 50 202 217 216 220 225 231 225 224 206 189 193 194 203 216 216 216 218 219 222 219 212 208 204 195 190 192 195 189 181 178 174 179 178 177 177 175 170 166 165 162 162 164 151 158 142 149 137 134 151 142 141 137 134 122 135 241 263 307 321 323 288 247 266 272 262 280 286 281 280 274 271 279
43 43 50 55 58 59 60 63 59 46 48 88 104 77 16 351 259 261 267 262 247 245 240 224 200 205 215 219 227 226 223 222 221 216 218 215 212 201 192 190 190 191 181 178 182 182 181 180 178 175 174 170 166 166 165 165 161 148 136 137 151 153 157 142 145 160 159 179 304 295 241 258 265 280 295 278 269 280 260 258 273 275 273 273 271
59 54 51 52 56 61 61 60 60 57 42 45 59 53 57 357 330 330 308 282 278 268 256 248 235 221 219 220 224 232 230 227 224 220 221 223 215 210 201 190 189 190 187 184 186 183 184 183 181 180 177 174 173 168 169 171 165 156 153 156 160 161 154 142 159 153 147 171 196 270 311 302 299 293 289 287 285 282 279 270 251 255 279 284 278
78 71 68 65 60 62 69 70 67 63 62 62 70 64 49 42 24 359 344 322 301 289 280 280 266 250 243 240 235 233 231 231 230 227 224 224 221 212 203 196 192 189 191 191 190 184 186 186 184 183 178 176 175 169 172 175 167 169 167 164 165 165 164 162 174 169 204 130 220 237 258 236 236 271 282 283 289 274 291 295 293 289 285 278 279
96 88 80 76 78 77 72 66 68 69 65 47 54 61 57 45 40 50 41 12 326 284 259 245 252 261 267 271 270 265 261 254 241 237 237 228 223 217 209 209 205 195 191 193 192 186 185 186 185 183 179 175 173 170 174 177 175 174 173 168 169 169 171 174 178 194 201 235 256 256 231 251 268 275 287 300 286 296 290 294 296 277 262 261 266
101 93 86 82 76 69 67 66 64 63 61 55 50 54 52 45 41 41 34 21 352 342 347 319 296 279 271 271 278 286 288 283 279 277 267 252 243 234 221 211 212 209 199 192 191 189 186 186 185 183 179 178 176 175 175 175 172 176 173 168 174 168 170 174 177 193 207 240 239 241 256 268 266 278 276 276 303 304 298 297 295 294 285 281 272
110 100 90 80 72 71 68 61 66 62 60 61 59 55 49 45 37 30 42 35 352 354 16 30 10 327 302 297 281 273 265 259 254 245 245 244 243 236 225 217 218 217 205 196 191 189 187 187 183 182 181 180 179 178 176 174 173 172 170 171 170 170 173 178 176 205 210 210 227 242 244 255 271 275 282 288 286 284 288 284 284 289 296 299 293
120 106 103 99 87 74 70 67 60 60 57 66 55 60 57 56 49 35 44 37 7 359 16 22 14 351 350 355 344 318 290 277 267 259 255 252 244 238 236 226 219 217 209 200 196 194 188 184 180 180 181 181 180 178 176 175 173 173 173 170 169 171 174 172 184 187 187 197 221 227 242 245 254 266 272 276 279 279 273 274 271 270 273 278 281
136 125 107 100 95 89 80 73 63 54 61 56 73 62 56 40 41 39 44 32 23 23 18 6 9 10 14 13 351 313 298 291 287 279 268 259 254 250 246 241 228 221 217 211 205 199 193 185 179 178 179 180 178 178 175 174 176 174 172 169 166 171 174 169 172 180 173 190 197 212 229 241 249 264 289 289 283 276 281 279 277 275 273 270 271
155 131 109 89 80 74 69 59 59 53 61 65 63 79 79 72 56 46 42 36 27 23 22 25 20 16 10 349 325 313 305 288 279 278 276 271 263 254 251 247 236 224 223 222 212 189 188 188 178 176 175 174 177 176 178 177 172 170 168 167 165 168 170 169 174 170 174 186 201 199 223 218 25 353 328 299 291 298 290 275 274 275 271 269 268
157 138 114 92 67 54 49 43 27 17 13 13 27 16 36 28 42 44 53 43 28 23 18 13 16 19 344 326 312 297 287 289 281 276 272 270 271 268 260 251 246 239 227 222 210 178 172 169 177 177 172 171 172 181 148 155 160 165 165 157 156 165 176 172 179 172 185 206 218 243 219 146 212 232 241 242 242 250 249 261 278 283 278 274 270
150 137 123 103 103 85 59 28 24 7 0 5 8 353 3 358 8 5 9 4 3 352 357 0 3 349 322 309 308 305 296 286 286 280 271 264 261 262 260 256 250 243 231 170 156 142 136 174 198 186 174 173 169 130 119 114 107 123 150 150 159 161 169 180 182 194 216 218 233 238 268 191 202 219 225 223 236 237 237 245 251 256 268 273 278
157 146 132 122 106 81 38 23 359 350 348 353 353 348 352 352 0 344 342 344 341 330 339 343 342 335 324 315 304 301 297 294 284 277 271 266 260 253 251 256 254 229 190 182 176 181 187 184 186 185 171 150 120 115 121 122 130 139 152 155 162 168 177 187 193 202 219 233 251 263 258 270 270 271 301 282 229 214 223 232 234 243 249 254 256
146 138 131 105 64 49 31 1 329 347 329 336 340 328 331 332 328 330 330 324 322 323 322 321 316 314 314 311 307 301 301 293 284 280 272 262 258 254 246 236 232 229 229 214 192 192 187 180 165 152 133 114 110 130 128 140 149 147 153 217 173 176 189 191 201 211 241 260 268 266 268 263 273 179 225 253 283 286 221 209 220 225 231 236 244
147 141 154 85 28 6 357 343 326 317 327 331 313 311 311 310 311 317 321 321 319 321 318 312 303 301 304 303 300 299 294 293 287 278 265 256 245 252 249 236 228 227 227 225 206 188 180 168 154 145 128 131 136 151 150 154 156 157 171 224 181 176 209 216 214 228 234 248 248 258 269 272 273 272 277 274 283 288 300 295 278 272 272 237 222
162 97 20 13 351 332 328 315 309 328 308 294 296 302 308 303 311 313 313 312 312 317 316 309 304 305 308 310 309 305 297 290 286 280 268 256 247 243 248 247 233 221 218 214 198 179 168 159 158 158 158 143 137 150 156 161 160 168 179 223 189 179 214 225 231 237 248 253 260 261 265 268 274 275 278 294 287 291 294 293 286 281 274 273 274
346 352 337 329 328 318 304 302 305 288 299 302 309 307 305 308 310 311 314 318 322 319 317 318 316 319 320 322 315 307 298 290 284 278 264 255 244 234 234 237 236 228 214 204 187 173 163 157 141 139 135 132 136 157 168 168 164 170 177 212 197 204 226 237 240 244 249 257 258 261 265 273 278 277 282 221 235 281 291 289 286 281 278 276 272
316 308 321 317 303 295 304 301 292 300 302 307 309 312 307 309 312 315 319 318 319 317 316 317 316 321 324 319 316 307 300 290 280 271 260 250 244 235 231 229 227 223 211 189 167 161 157 149 137 125 113 115 146 174 174 169 167 166 183 212 213 232 239 237 248 256 261 262 261 260 262 277 283 286 298 294 223 251 289 289 288 286 284 282 275
303 305 298 301 304 302 297 299 299 294 295 296 300 300 301 297 301 306 308 309 310 310 310 311 313 317 317 316 311 306 298 291 279 268 260 245 238 238 232 226 227 223 215 188 163 153 151 137 128 122 135 143 148 167 175 172 171 175 208 230 246 253 260 267 268 267 270 270 270 242 259 270 276 279 295 345 347 286 291 293 293 292 289 286 282
307 312 313 310 308 303 295 289 287 288 293 294 292 294 289 287 288 291 294 296 297 298 302 307 310 309 307 307 305 301 296 287 279 269 259 248 238 236 236 226 225 224 215 197 167 152 133 130 135 140 131 132 141 159 174 174 181 180 210 246 264 271 275 277 281 280 277 281 280 246 207 224 253 271 278 270 273 276 282 289 295 296 291 286 285
306 302 309 313 305 296 291 293 294 295 294 290 288 284 283 279 279 277 279 282 287 291 297 298 297 298 296 293 292 291 285 278 273 270 258 249 246 240 236 229 224 221 210 191 164 130 131 130 130 127 150 143 131 144 171 170 155 165 234 282 291 289 286 287 286 287 293 287 286 283 271 215 222 242 263 279 276 264 268 280 291 287 285 281 283
308 311 318 301 299 298 298 297 295 294 291 288 286 283 280 279 277 276 274 276 281 287 291 292 291 288 285 285 288 286 283 276 268 266 263 250 240 239 236 231 223 210 195 176 148 124 126 127 129 137 151 126 84 108 129 143 146 153 152 233 264 276 282 287 287 294 290 292 291 293 289 10 101 137 204 236 246 242 248 273 283 279 274 286 305
305 307 301 298 297 294 294 290 288 288 287 284 281 279 277 278 276 273 277 278 280 285 287 285 283 283 282 281 282 282 280 274 265 257 256 253 243 238 230 217 199 183 146 106 95 93 98 100 105 108 115 122 95 57 126 141 146 153 155 215 273 289 351 308 295 288 291 285 292 295 295 49 49 6 328 302 281 276 271 277 278 276 281 286 282
308 304 303 302 296 292 291 291 289 286 284 282 279 275 273 270 266 268 271 272 275 280 281 278 278 279 279 277 277 279 274 264 257 253 250 250 236 224 213 174 161 136 112 111 107 107 111 124 143 136 132 126 123 123 78 108 117 118 129 178 207 293 16 287 286 287 291 291 290 298 288 13 342 331 319 312 304 296 288 279 276 274 273 272 271
297 298 298 298 292 286 282 282 283 281 279 276 273 271 268 266 265 269 267 268 271 271 272 270 267 266 268 267 270 274 271 263 253 248 244 249 215 182 143 134 124 117 109 96 101 113 130 138 138 146 155 138 128 123 112 81 93 100 117 166 190 215 266 285 303 293 290 292 289 293 330 338 315 306 293 285 282 278 277 277 273 272 270 268 270
291 288 287 282 280 281 280 279 277 276 274 272 269 269 271 269 270 270 267 266 265 267 265 263 259 259 259 262 267 271 272 263 256 245 227 132 129 138 130 129 116 113 112 117 127 125 129 140 134 148 136 123 107 103 129 138 161 163 188 191 203 220 226 229 265 289 289 295 309 309 289 280 281 280 277 273 269 259 253 253 257 261 262 269 272
282 280 278 279 279 280 281 279 278 275 273 268 266 267 270 272 273 268 268 267 267 266 265 263 262 258 258 259 259 261 262 262 241 200 168 162 156 147 137 135 123 125 130 133 132 158 161 132 139 137 122 108 115 117 115 146 179 186 192 177 208 209 226 218 236 264 268 268 263 260 261 258 262 265 274 287 299 297 294 285 278 273 270 271 268
285 285 285 281 277 277 277 278 277 275 274 273 271 271 270 271 270 269 267 266 263 263 264 261 258 258 255 254 253 256 254 210 161 164 169 165 154 141 135 132 133 137 132 131 152 147 138 147 148 143 141 143 139 138 124 73 11 5 350 278 215 216 205 218 234 263 260 276 291 297 299 296 279 274 268 263 262 265 262 262 261 267 272 275 272
282 283 281 281 280 280 283 285 284 283 282 281 278 274 271 270 270 268 266 262 259 256 256 257 256 253 249 242 243 161 159 174 175 170 158 149 143 141 126 119 128 131 133 141 129 135 136 145 154 152 147 143 141 120 78 31 18 357 347 333 332 321 318 327 313 319 324 307 298 293 282 286 300 301 299 307 302 301 296 294 289 288 286 284 279
286 286 284 281 284 284 284 283 282 282 281 278 276 275 275 274 272 269 264 262 258 254 249 248 248 248 243 241 226 153 169 171 165 159 152 140 142 136 131 131 142 155 135 124 136 141 152 162 157 136 128 130 111 89 64 48 37 19 349 339 329 334 335 319 4 353 311 295 298 305 308 303 305 307 307 306 305 303 301 297 295 291 290 289 287
286 284 283 284 283 283 283 282 283 283 280 278 277 276 275 273 271 269 266 259 254 248 246 242 238 238 242 221 196 170 172 167 155 150 121 83 44 34 59 128 119 77 106 117 123 125 121 143 114 76 43 50 67 71 96 107 100 150 186 277 309 310 315 308 312 304 289 295 309 311 311 309 308 310 312 310 308 308 306 302 299 295 290 287 284
286 285 285 285 286 285 284 282 281 281 280 278 276 275 275 272 268 264 255 249 248 243 234 233 228 229 227 208 168 168 162 162 154 138 127 126 114 66 45 48 67 94 88 83 77 71 59 44 60 109 79 74 85 95 103 104 133 143 322 325 314 322 313 308 302 310 306 316 319 315 312 311 310 310 308 309 309 307 305 303 301 298 294 289 283